Lapse_Rate
0.4 1.1 1.5 1.2 1.4 1.8 2.7 3.0 2.9 3.3 3.6 3.6 3.8 3.6 3.2 3.3 2.7 2.2 1.5 1.3 1.1 0.3 -0.3 -0.9 -1.3 -1.5 -1.6 1.6 3.7 3.7 3.1 3.3 4.1 3.9 2.6 2.6 2.1 2.7 3.0 2.9 2.2 2.5 2.6
-0.0 0.5 1.6 1.6 2.2 2.4 2.5 2.8 2.6 2.2 2.0 1.9 1.7 1.8 2.0 1.9 0.6 1.5 2.6 2.4 2.2 1.6 1.1 0.3 0.2 -1.0 1.2 -0.2 1.9 2.4 3.7 3.0 3.7 4.3 3.7 2.4 2.2 2.0 3.0 3.0 2.9 2.8 2.4
1.0 1.0 0.5 0.6 0.4 -0.2 0.4 0.4 0.6 0.9 0.7 1.1 0.9 0.7 0.9 0.9 1.7 2.1 2.4 2.1 1.3 0.2 0.2 1.0 -0.7 -2.2 -4.2 1.0 -0.0 4.0 3.7 2.4 2.9 3.0 3.7 2.3 1.8 0.8 2.1 2.2 2.4 2.7 2.7
0.3 1.3 1.0 0.7 0.7 -0.2 0.3 0.4 0.6 0.5 0.8 1.0 1.8 2.6 2.9 3.1 3.2 2.1 2.1 1.6 1.4 1.9 1.3 0.4 -0.3 -0.9 -1.4 -3.6 1.4 2.8 4.3 3.6 3.5 3.2 3.1 3.0 1.9 1.1 2.0 2.7 2.4 1.9 3.2
1.4 2.2 3.9 3.5 3.2 2.8 2.8 2.0 1.2 2.0 2.5 2.4 2.3 2.6 2.4 2.5 2.9 2.3 2.2 2.1 1.9 2.5 2.0 1.2 0.9 0.9 1.3 1.2 1.0 0.8 2.5 3.0 3.8 4.3 4.2 2.8 1.0 0.3 0.9 1.7 2.5 3.1 2.9
3.4 2.3 2.3 1.7 1.0 2.1 2.2 2.7 0.9 2.2 3.4 2.9 1.9 1.4 1.6 2.8 0.9 0.5 1.4 1.1 1.7 2.0 1.6 1.4 1.2 0.9 0.8 0.0 0.1 0.4 0.9 2.0 2.6 3.8 4.2 3.0 2.9 1.5 1.7 0.9 1.6 1.9 3.9
3.5 3.1 2.4 2.5 0.8 1.3 3.2 2.4 2.9 3.3 2.8 2.7 2.3 2.0 1.8 2.0 1.3 0.0 0.0 0.5 0.4 1.2 1.3 1.0 1.4 2.4 1.6 1.0 -0.2 -0.8 -0.3 -0.0 0.7 3.3 3.7 4.1 4.8 3.6 3.1 1.4 1.4 2.6 3.2
3.9 3.8 3.0 3.2 3.2 2.9 3.9 4.3 3.7 2.8 2.2 1.5 1.7 1.4 1.2 1.8 0.1 -1.3 -0.6 1.0 1.2 1.3 1.4 1.8 1.4 1.3 1.4 1.1 0.4 -0.2 1.0 1.7 2.8 3.8 3.7 4.2 4.9 5.0 2.6 3.7 1.9 2.6 2.0
4.0 3.9 3.9 3.2 2.0 2.7 3.5 3.1 2.4 2.0 2.0 1.8 1.8 1.8 2.1 2.0 0.2 -0.4 0.3 1.7 2.4 2.7 2.7 2.7 2.7 2.5 1.6 -0.2 0.3 1.5 2.7 2.8 2.7 1.4 0.9 1.0 0.3 0.5 1.8 1.1 1.9 3.5 4.4
4.1 3.4 2.0 1.4 2.0 3.0 2.8 2.2 2.0 1.7 2.0 2.0 2.2 2.1 1.3 2.0 1.3 1.1 2.0 3.4 3.2 3.6 3.0 3.3 2.4 2.4 0.2 -0.2 1.3 2.2 2.7 3.2 2.8 2.2 2.1 2.7 2.3 2.5 0.4 2.7 2.3 2.9 4.0
2.9 2.2 1.9 1.5 2.5 2.5 2.0 1.8 1.7 1.8 1.9 2.1 2.2 1.8 1.8 1.9 2.0 0.8 1.2 3.4 4.2 3.9 4.3 4.3 4.5 1.5 -0.3 -1.1 -0.3 2.3 3.0 3.0 1.9 2.2 2.8 4.1 4.0 4.7 4.6 3.0 2.6 3.2 3.6
2.3 2.7 2.5 2.3 3.3 2.9 2.2 1.9 2.1 2.2 2.4 2.5 2.8 3.2 3.5 3.1 2.5 2.5 1.7 1.8 2.8 3.9 4.5 4.2 3.8 1.1 -0.4 -1.4 -0.8 -0.2 -0.1 1.2 2.7 3.0 3.8 4.3 4.6 4.7 5.0 4.7 3.7 4.3 4.6
2.9 2.9 2.7 2.8 3.2 3.2 3.0 2.5 2.4 2.3 2.6 3.0 3.6 3.6 3.5 3.9 3.6 2.4 1.9 2.2 3.0 3.6 4.3 3.8 1.8 0.4 0.4 0.2 -0.3 -0.6 -0.0 1.9 3.2 3.8 4.4 4.7 4.2 3.7 3.5 3.2 3.3 3.6 3.6
2.8 2.4 2.0 2.5 2.8 2.7 3.1 3.0 2.9 3.4 3.3 3.5 3.7 3.7 3.6 3.8 3.8 4.3 4.5 4.1 3.4 3.7 2.8 2.2 2.3 2.0 1.7 2.2 2.1 3.0 2.1 3.5 4.0 4.2 4.0 4.1 4.3 4.1 3.9 3.6 3.5 3.2 4.3
1.7 2.0 2.4 2.6 2.3 2.4 2.4 2.6 3.4 3.7 3.6 4.2 4.7 4.9 4.9 4.8 5.1 3.2 1.7 3.5 3.4 2.5 0.4 2.6 4.3 4.3 5.2 5.0 4.4 4.1 3.9 3.9 4.1 4.3 4.5 4.9 4.6 4.8 4.6 4.3 3.8 3.4 4.6
1.9 2.2 2.2 2.0 2.3 3.9 4.6 4.1 3.3 2.4 1.6 1.0 0.6 1.8 4.4 2.5 1.1 -0.0 -0.5 -1.0 -1.4 -1.3 1.7 2.9 3.7 4.5 4.8 4.8 4.4 4.3 4.0 4.0 3.9 3.9 4.3 4.9 5.3 5.3 5.2 5.2 4.7 4.4 4.5
2.7 3.0 3.0 2.7 3.4 4.2 5.0 5.9 6.1 5.3 5.2 2.8 1.8 1.4 0.6 0.4 -0.2 -0.4 -1.1 -0.8 -0.1 -0.2 4.0 4.3 4.3 4.9 4.9 4.7 4.2 4.5 4.8 4.9 4.4 4.0 4.3 5.0 5.5 5.5 4.6 5.9 5.8 4.9 4.7
3.7 3.1 3.7 3.7 4.1 4.7 5.3 6.2 7.2 7.0 6.9 6.7 5.2 3.2 2.2 0.2 -0.3 -0.2 -1.0 0.9 4.7 2.9 3.6 4.5 4.9 4.8 4.5 4.4 4.4 4.4 4.9 4.5 4.2 4.7 4.8 5.3 5.6 5.5 5.5 5.9 6.3 6.2 5.9
3.7 3.9 4.0 3.9 4.0 4.1 4.7 5.2 5.8 6.0 5.7 5.5 5.7 5.1 4.6 2.7 0.2 -1.2 -0.7 3.6 5.1 6.6 6.7 6.4 6.5 6.5 6.3 6.2 6.2 5.9 5.5 5.1 4.9 4.9 5.1 5.4 5.2 4.9 5.3 6.0 6.7 3.6 5.1
3.2 3.6 4.1 4.2 4.1 4.1 4.3 4.6 4.8 5.0 4.9 4.9 5.4 5.9 5.9 5.1 5.2 4.7 4.7 5.8 6.5 6.8 7.0 6.9 6.9 6.8 6.8 6.7 6.9 6.9 6.4 5.6 5.1 5.0 4.8 5.4 5.9 5.7 5.3 5.8 6.8 6.7 6.2
3.2 3.2 3.6 3.9 3.7 3.8 3.8 4.3 4.3 4.6 4.7 4.7 5.2 5.5 2.3 4.2 5.5 5.9 6.1 6.6 6.4 6.2 6.4 6.5 6.6 6.2 6.4 6.0 5.7 5.8 6.3 6.0 5.1 5.1 5.1 5.2 5.5 5.5 5.7 5.7 6.2 6.7 6.8
2.8 3.0 3.2 3.5 3.5 3.6 3.9 3.8 4.0 4.2 4.9 5.4 5.7 5.4 2.4 5.5 6.3 6.3 6.8 6.0 5.5 5.9 5.9 5.9 6.0 6.1 5.8 5.4 5.0 5.0 5.4 5.7 5.7 5.7 5.1 5.4 5.6 5.4 5.1 5.0 5.3 6.0 6.7
2.7 2.9 3.2 3.3 3.1 3.1 3.5 3.1 2.9 3.6 4.5 4.9 5.4 5.4 5.8 6.3 6.5 6.2 5.9 5.7 5.3 5.0 5.3 5.4 5.8 5.7 5.1 4.4 4.4 4.0 4.0 4.2 4.4 4.3 4.6 5.0 5.1 5.4 5.8 5.8 6.1 6.2 6.7
3.3 2.8 3.3 3.5 3.0 3.0 2.8 3.1 3.5 2.5 3.7 5.0 5.0 5.3 6.4 6.1 6.1 5.9 5.6 5.4 4.7 4.3 4.4 4.6 4.5 4.1 3.7 3.4 2.8 2.6 2.8 2.9 2.8 2.4 2.5 2.2 3.5 3.7 4.4 4.9 5.1 5.0 4.9
3.3 3.7 2.6 3.1 3.3 3.3 3.5 3.3 3.2 3.7 4.0 4.3 5.1 5.6 6.0 6.0 6.0 5.6 5.3 4.8 4.2 3.9 3.7 3.6 3.3 3.0 2.6 2.5 2.4 2.3 1.2 -2.6 -3.3 -2.2 -0.6 0.3 1.3 2.3 2.8 3.4 4.2 5.1 5.0
3.8 3.1 3.2 3.8 3.8 3.6 2.8 3.4 3.3 3.6 4.1 4.9 5.4 5.6 5.8 5.8 5.6 5.4 5.1 4.6 4.1 3.6 3.4 3.1 2.8 2.7 2.4 2.2 1.8 -0.8 -2.9 -3.7 -3.4 -4.0 -1.8 0.8 1.7 2.1 2.5 2.7 3.0 3.9 4.9
Wind_Speed
9 8 7 6 6 6 7 5 5 4 4 4 4 4 4 5 6 6 6 7 7 6 4 6 6 6 6 6 7 4 5 4 5 3 1 3 4 5 7 9 9 8 8
6 6 5 4 5 5 4 3 0 3 7 8 8 7 6 5 4 4 1 2 4 2 2 5 1 4 7 4 4 12 5 6 5 7 2 4 7 7 7 8 7 10 10
10 10 12 11 10 9 9 9 9 6 5 3 4 4 3 1 1 2 3 2 3 3 5 9 6 5 6 2 2 11 5 5 6 5 5 2 4 2 6 6 6 7 11
16 19 16 13 10 9 8 8 6 4 3 4 3 2 2 4 3 5 3 4 5 6 6 5 8 7 3 7 4 10 8 6 5 6 6 4 4 4 4 5 6 6 7
18 18 16 12 10 10 7 3 2 3 2 4 4 3 1 1 3 4 4 2 4 4 2 1 2 5 8 8 4 7 7 7 5 6 5 3 4 4 6 4 7 4 6
11 11 12 13 14 10 11 13 5 6 5 4 3 3 4 3 5 7 6 1 2 5 6 5 6 10 12 14 13 11 9 7 8 7 6 6 9 6 5 6 5 3 5
3 3 3 4 11 10 7 6 6 4 3 2 2 2 3 4 6 6 6 4 5 6 6 6 7 7 10 7 9 11 11 12 14 9 10 10 8 8 7 7 7 6 5
4 4 4 5 11 9 3 5 4 3 4 4 4 3 4 5 7 6 6 3 4 5 5 7 8 9 9 9 8 7 8 7 7 5 9 11 11 9 10 7 8 8 1
5 3 3 6 11 6 4 3 2 2 3 2 3 4 3 4 7 9 5 2 3 5 4 4 5 7 8 7 7 8 7 8 6 11 13 14 13 11 8 4 4 7 6
4 4 6 10 8 2 1 1 1 2 4 3 4 3 4 4 6 4 3 3 4 5 6 6 6 7 8 10 7 6 7 8 7 9 8 9 8 8 12 11 7 7 4
5 6 8 7 5 2 3 3 3 3 4 4 4 4 5 4 6 9 5 4 4 5 6 6 6 6 9 6 10 6 7 5 7 6 7 6 6 6 6 9 8 7 5
7 7 7 6 4 2 3 3 4 4 4 4 4 5 4 5 7 8 10 7 5 3 7 6 8 10 11 13 8 13 10 5 5 5 5 6 5 6 5 6 8 9 7
7 6 5 4 3 2 1 2 3 3 3 4 4 4 4 4 5 9 11 8 7 4 6 8 13 14 15 11 12 14 9 6 6 6 6 6 4 5 7 4 5 4 5
6 4 3 3 2 3 2 2 2 3 3 4 4 5 5 6 5 5 4 6 7 6 6 7 9 11 14 12 8 6 5 6 6 7 6 5 4 4 5 4 4 5 5
4 3 1 1 2 2 2 2 1 3 4 4 5 4 5 6 5 6 5 5 6 5 6 4 4 4 6 7 6 6 5 5 6 6 6 7 6 6 6 4 5 4 5
3 3 2 2 2 2 1 3 5 9 11 8 11 8 4 9 12 9 8 5 6 7 2 4 5 6 7 7 6 7 6 8 6 6 6 6 7 7 6 5 6 7 6
2 2 3 4 4 4 4 4 6 5 8 11 8 9 5 9 11 10 7 10 6 4 4 6 6 8 8 8 7 7 8 8 7 6 7 7 7 7 7 7 7 6 7
1 1 2 3 3 4 5 6 5 5 7 7 8 7 8 8 9 12 11 9 7 3 5 7 8 8 8 8 8 7 8 7 7 8 7 7 7 7 8 8 8 9 7
2 2 2 3 3 4 5 6 7 7 7 6 7 8 5 6 11 11 6 5 8 8 7 7 6 9 9 8 7 6 7 7 9 8 8 7 7 7 8 9 8 10 10
4 6 5 4 5 6 6 6 7 6 7 7 7 7 7 9 9 8 8 9 7 6 7 7 8 9 9 9 9 8 8 8 7 8 8 7 8 7 8 10 9 9 8
4 4 5 4 4 5 4 6 5 6 7 7 8 8 8 6 9 10 9 8 8 7 6 7 8 8 8 8 9 9 9 8 7 7 8 8 8 8 9 9 10 9 9
4 4 4 5 5 5 6 5 6 6 7 8 8 9 10 7 9 8 8 8 8 8 7 8 7 8 8 5 8 8 9 8 7 7 7 8 8 8 8 8 9 9 8
5 5 5 6 5 6 7 6 6 6 7 8 9 9 8 8 8 8 7 8 8 9 7 7 8 7 6 7 7 7 8 7 7 6 6 5 5 6 6 7 8 7 7
5 5 6 7 5 5 5 7 7 6 7 8 8 8 9 8 8 8 7 7 8 8 8 7 7 9 8 7 6 7 7 7 6 6 8 7 7 8 8 10 9 9 8
5 5 4 5 5 5 5 6 6 7 6 6 7 7 8 8 7 7 6 6 6 7 8 7 6 8 10 12 11 10 11 14 12 12 7 8 9 10 11 9 10 9 10
4 5 5 5 4 4 4 6 5 4 5 4 5 6 7 7 7 6 6 6 6 6 8 6 7 10 12 9 12 18 17 13 8 9 6 6 7 7 8 10 12 9 13
Wind_Direction
181 178 175 177 179 180 195 207 203 217 236 224 218 207 194 166 160 154 153 155 135 131 161 139 150 136 71 25 323 250 229 205 250 278 252 228 209 223 229 223 224 231 248
142 125 141 146 173 185 186 190 234 2 11 12 11 358 351 36 29 42 114 44 69 112 246 252 109 61 50 304 339 286 236 217 211 258 248 219 226 217 229 228 225 232 235
109 97 70 59 61 71 72 64 56 44 49 41 45 36 15 14 152 116 160 181 234 235 266 274 208 164 89 255 13 286 253 241 219 230 260 208 215 201 228 238 232 239 242
93 83 72 56 41 25 24 53 54 37 5 30 6 343 7 322 337 318 274 256 259 248 243 254 299 333 338 91 250 280 272 251 219 226 239 235 216 210 224 229 239 225 236
107 101 91 68 37 12 332 29 339 335 2 47 29 347 88 245 356 305 312 334 319 296 271 260 307 307 290 258 248 278 267 263 252 248 242 207 202 191 209 215 232 224 235
104 119 114 67 51 0 332 320 29 18 17 37 31 29 15 358 349 324 303 325 316 299 295 286 267 266 270 267 258 258 251 260 259 256 257 242 247 217 213 205 194 191 244
107 101 63 134 144 174 256 314 329 340 340 3 2 7 347 309 309 326 332 309 296 276 268 271 272 264 257 258 263 269 271 256 238 255 263 260 254 224 215 210 198 210 212
35 22 51 93 125 98 134 241 264 322 312 317 327 336 321 300 309 339 324 275 266 267 264 266 262 272 271 274 283 282 276 279 275 257 247 261 262 262 199 211 205 218 156
206 173 205 116 79 102 175 213 285 293 278 293 302 293 262 302 336 337 352 0 321 309 300 278 275 278 271 273 269 262 268 275 252 255 256 259 267 246 193 138 188 193 218
179 170 80 65 71 85 267 289 232 265 272 296 299 307 325 332 321 350 322 333 317 322 300 302 287 277 300 297 242 261 264 272 310 319 313 306 292 272 212 203 188 195 187
121 79 67 72 81 35 356 350 327 317 324 325 312 324 332 325 317 316 302 292 283 307 295 295 300 299 320 298 249 225 236 278 296 299 302 306 299 287 245 223 209 214 184
92 94 89 86 77 21 5 354 339 333 322 310 310 309 305 300 280 287 300 301 302 292 286 288 291 301 310 300 281 261 253 265 285 278 281 288 300 302 290 247 221 222 222
94 89 91 97 113 152 212 277 298 291 277 286 276 275 274 281 282 282 288 290 284 251 273 285 288 295 299 293 264 258 248 244 253 263 264 259 247 273 290 285 239 210 205
102 104 105 103 120 141 163 186 233 279 299 304 306 304 295 284 275 287 308 316 303 297 304 298 292 287 283 272 303 284 242 244 244 251 264 271 270 258 268 252 254 203 206
80 79 103 193 181 184 189 196 251 245 224 275 276 278 298 304 296 292 296 303 305 305 316 297 305 304 305 303 300 292 295 281 259 257 256 264 262 258 259 252 243 203 213
55 27 337 339 355 319 336 321 219 234 264 247 241 222 287 242 271 285 288 281 243 254 244 281 288 286 284 283 283 289 287 286 283 275 262 259 261 262 260 248 237 226 217
59 15 6 20 360 350 344 332 331 321 282 299 292 295 268 277 317 320 337 328 296 192 288 298 287 293 292 288 281 282 286 286 287 276 269 260 254 256 250 250 239 230 232
250 29 20 354 341 329 322 312 298 302 318 323 318 316 313 320 332 325 331 325 323 286 301 296 302 304 296 290 288 282 287 286 284 282 276 266 264 260 260 248 239 234 227
321 315 315 309 317 319 317 322 324 319 316 314 323 323 334 354 331 317 323 312 302 298 298 296 291 303 296 290 286 283 277 279 278 278 274 264 266 263 256 252 240 232 221
289 295 306 319 318 327 329 320 322 322 321 319 313 313 325 330 327 326 313 300 279 275 291 292 294 290 286 293 293 287 281 275 273 276 276 266 261 255 261 269 254 239 227
281 297 291 292 289 291 294 288 284 290 305 308 300 294 291 306 306 306 309 301 296 289 281 286 283 287 291 291 285 276 273 274 270 275 279 272 267 261 259 259 265 252 236
262 278 292 288 288 290 287 285 293 294 292 290 296 293 296 305 306 297 298 303 302 298 292 292 290 292 285 308 308 304 308 276 259 261 261 261 265 261 260 264 259 251 242
261 270 279 284 280 280 283 284 272 269 278 285 289 292 298 298 295 294 297 299 306 306 302 296 289 297 306 297 287 293 292 291 293 310 312 299 279 273 275 274 277 271 243
242 241 253 270 271 265 266 273 277 266 277 292 295 295 300 294 295 298 299 305 311 310 310 307 305 300 300 299 294 292 288 288 300 294 282 269 271 270 263 265 264 268 271
242 245 256 249 254 258 271 272 274 285 293 290 297 307 304 293 295 297 298 305 302 307 311 307 304 305 302 301 298 295 302 301 285 269 266 260 261 262 266 264 263 255 256
251 229 236 252 257 262 257 275 276 276 282 304 313 309 300 305 300 295 302 300 304 310 309 305 310 313 313 310 312 315 309 296 293 285 265 249 242 244 248 254 255 250 253